Cumberland, WV

4:24 PM EDT on June 19, 2018 (GMT -0400)
Greater Cumberland Regional

Weather History for KCBE - August, 2017

Change the Weather History Date:

Friday, August 18, 2017

  Actual Average (KMRB) Record (KMRB)
Temperature  
Mean Temperature 79 °F -  
Max Temperature 87 °F 83 °F 98 °F (1932)
Min Temperature 71 °F 62 °F 43 °F (1981)
Cooling Degree Days 14    
Growing Degree Days 29 (Base 50)    
Moisture  
Dew Point 71 °F    
Average Humidity 81    
Maximum Humidity 100    
Minimum Humidity 48    
Precipitation  
Precipitation 0.00 in - - ()
Sea Level Pressure  
Sea Level Pressure 29.89 in    
Wind  
Wind Speed 1 mph (WSW)    
Max Wind Speed 9 mph    
Max Gust Speed -    
Visibility 6 miles    
Events      
Averages and records for this station are not official NWS values.
T = Trace of Precipitation, MM = Missing Value Source: NWS Daily Summary

Daily Weather History Graph

Daily Weather History Graph

Search for Another Location

Airport or City:

Astronomy

Aug. 18, 2017 Rise Set
Actual Time 6:30 AM EDT 8:06 PM EDT
Civil Twilight 6:01 AM EDT 8:35 PM EDT
Nautical Twilight 5:27 AM EDT 9:09 PM EDT
Astronomical Twilight 4:50 AM EDT 9:45 PM EDT
Moon 2:58 AM EDT (8/18) 5:46 PM EDT (8/18)
Length of Visible Light 14h 33m
Length of Day
13h 36m
Waning Crescent, 13% of the Moon is Illuminated
Aug 18
Waning Crescent
Aug 21
New
Aug 29
First Quarter
Sep 6
Full
Sep 13
Last Quarter

Hourly Weather History & Observations

Time (EDT) Temp. Heat Index Dew Point Humidity Pressure Visibility Wind Dir Wind Speed Gust Speed Precip Events Conditions
12:10 AM 75.2 °F - 75.2 °F 100% 29.93 in 2.5 mi Calm Calm - N/A   Clear
12:30 AM 73.4 °F - 73.4 °F 100% 29.93 in 3.0 mi Calm Calm - N/A   Clear
12:50 AM 73.4 °F - 73.4 °F 100% 29.93 in 1.8 mi Calm Calm - N/A   Unknown
1:10 AM 73.4 °F - 73.4 °F 100% 29.93 in 0.2 mi Calm Calm - N/A   Overcast
1:30 AM 73.4 °F - 73.4 °F 100% 29.93 in 0.5 mi Calm Calm - N/A   Mostly Cloudy
1:50 AM 73.4 °F - 73.4 °F 100% 29.92 in 0.2 mi Calm Calm - N/A   Overcast
2:10 AM 73.4 °F - 73.4 °F 100% 29.92 in 0.2 mi Calm Calm - N/A   Overcast
2:30 AM 73.4 °F - 73.4 °F 100% 29.92 in 0.2 mi Calm Calm - N/A   Overcast
2:50 AM 73.4 °F - 73.4 °F 100% 29.91 in 0.2 mi Calm Calm - N/A   Overcast
3:10 AM 73.4 °F - 73.4 °F 100% 29.91 in 0.2 mi Calm Calm - N/A   Overcast
3:30 AM 71.6 °F - 71.6 °F 100% 29.91 in 0.2 mi Calm Calm - N/A   Overcast
3:50 AM 71.6 °F - 71.6 °F 100% 29.91 in 0.2 mi Calm Calm - N/A   Overcast
4:10 AM 71.6 °F - 71.6 °F 100% 29.90 in 0.2 mi Calm Calm - N/A   Overcast
4:30 AM 71.6 °F - 71.6 °F 100% 29.90 in 0.2 mi Calm Calm - N/A   Overcast
4:50 AM 71.6 °F - 71.6 °F 100% 29.90 in 0.2 mi Calm Calm - N/A   Overcast
5:10 AM 71.6 °F - 71.6 °F 100% 29.90 in 0.5 mi Calm Calm - N/A   Overcast
5:30 AM 71.6 °F - 71.6 °F 100% 29.91 in 0.2 mi Calm Calm - N/A   Overcast
5:50 AM 71.6 °F - 71.6 °F 100% 29.91 in 0.2 mi Calm Calm - N/A   Overcast
6:10 AM 71.6 °F - 71.6 °F 100% 29.91 in 0.2 mi Calm Calm - N/A   Overcast
6:30 AM 71.6 °F - 71.6 °F 100% 29.91 in 0.2 mi Calm Calm - N/A   Overcast
6:50 AM 71.6 °F - 71.6 °F 100% 29.91 in 0.2 mi Calm Calm - N/A   Overcast
7:10 AM 71.6 °F - 71.6 °F 100% 29.91 in 0.2 mi Calm Calm - N/A   Overcast
7:30 AM 71.6 °F - 71.6 °F 100% 29.91 in 0.8 mi Calm Calm - N/A   Overcast
7:50 AM 71.6 °F - 71.6 °F 100% 29.91 in 2.5 mi Calm Calm - N/A   Overcast
8:10 AM 71.6 °F - 71.6 °F 100% 29.92 in 1.8 mi Calm Calm - N/A   Overcast
8:30 AM 73.4 °F - 73.4 °F 100% 29.92 in 3.0 mi Calm Calm - N/A   Overcast
8:50 AM 73.4 °F - 73.4 °F 100% 29.92 in 4.0 mi Calm Calm - N/A   Overcast
9:10 AM 73.4 °F - 73.4 °F 100% 29.92 in 5.0 mi Calm Calm - N/A   Overcast
9:30 AM 73.4 °F - 73.4 °F 100% 29.91 in 7.0 mi Calm Calm - N/A   Mostly Cloudy
9:50 AM 73.4 °F - 73.4 °F 100% 29.91 in 7.0 mi Calm Calm - N/A   Mostly Cloudy
10:10 AM 75.2 °F - 75.2 °F 100% 29.91 in 10.0 mi Calm Calm - N/A   Scattered Clouds
10:30 AM 77.0 °F - 77.0 °F 100% 29.90 in 10.0 mi Calm Calm - N/A   Scattered Clouds
10:50 AM 77.0 °F - 73.4 °F 89% 29.90 in 10.0 mi Calm Calm - N/A   Clear
11:10 AM 77.0 °F - 73.4 °F 89% 29.90 in 10.0 mi Calm Calm - N/A   Clear
11:30 AM 77.0 °F - 73.4 °F 89% 29.90 in 10.0 mi Calm Calm - N/A   Scattered Clouds
11:50 AM 78.8 °F - 75.2 °F 89% 29.90 in 10.0 mi Calm Calm - N/A   Scattered Clouds
12:10 PM 80.6 °F 86.2 °F 75.2 °F 84% 29.89 in 10.0 mi Calm Calm - N/A   Clear
12:30 PM 80.6 °F 85.4 °F 73.4 °F 79% 29.89 in 10.0 mi Calm Calm - N/A   Scattered Clouds
12:50 PM 82.4 °F 89.5 °F 75.2 °F 79% 29.87 in 10.0 mi SSE 3.5 mph - N/A   Clear
1:10 PM 82.4 °F 89.5 °F 75.2 °F 79% 29.87 in 10.0 mi SSE 4.6 mph - N/A   Scattered Clouds
1:30 PM 82.4 °F 88.2 °F 73.4 °F 74% 29.88 in 10.0 mi West 9.2 mph - N/A   Mostly Cloudy
1:50 PM 82.4 °F 87.2 °F 71.6 °F 70% 29.88 in 10.0 mi West 8.1 mph - N/A   Mostly Cloudy
2:10 PM 82.4 °F 87.2 °F 71.6 °F 70% 29.88 in 10.0 mi WNW 6.9 mph - N/A   Scattered Clouds
2:30 PM 82.4 °F 87.2 °F 71.6 °F 70% 29.87 in 10.0 mi West 5.8 mph - N/A   Clear
2:50 PM 84.2 °F 89.6 °F 71.6 °F 66% 29.87 in 10.0 mi West 4.6 mph - N/A   Scattered Clouds
3:10 PM 82.4 °F 86.3 °F 69.8 °F 66% 29.87 in 10.0 mi SW 9.2 mph - N/A   Scattered Clouds
3:30 PM 82.4 °F 87.2 °F 71.6 °F 70% 29.86 in 10.0 mi SW 5.8 mph - N/A   Scattered Clouds
3:50 PM 84.2 °F 89.6 °F 71.6 °F 66% 29.85 in 10.0 mi SSW 6.9 mph - N/A   Clear
4:10 PM 86.0 °F 91.8 °F 71.6 °F 62% 29.85 in 10.0 mi SSW 4.6 mph - N/A   Clear
4:30 PM 86.0 °F 93.4 °F 73.4 °F 66% 29.84 in 10.0 mi South 5.8 mph - N/A   Scattered Clouds
4:50 PM 87.8 °F 93.8 °F 71.6 °F 58% 29.84 in 10.0 mi SSW 9.2 mph - N/A   Scattered Clouds
5:10 PM 87.8 °F 92.6 °F 69.8 °F 55% 29.83 in 10.0 mi SSW 5.8 mph - N/A   Scattered Clouds
5:30 PM 87.8 °F 91.4 °F 68.0 °F 52% 29.83 in 10.0 mi WSW 8.1 mph - N/A   Clear
5:50 PM 87.8 °F 91.4 °F 68.0 °F 52% 29.83 in 10.0 mi SW 5.8 mph - N/A   Clear
6:10 PM 86.0 °F 89.4 °F 68.0 °F 55% 29.83 in 10.0 mi WSW 3.5 mph - N/A   Clear
6:30 PM 86.0 °F 88.2 °F 66.2 °F 51% 29.83 in 10.0 mi West 6.9 mph - N/A   Scattered Clouds
6:50 PM 86.0 °F 87.3 °F 64.4 °F 48% 29.84 in 10.0 mi WNW 8.1 mph - N/A   Scattered Clouds
7:10 PM 86.0 °F 88.2 °F 66.2 °F 51% 29.85 in 10.0 mi WNW 5.8 mph - N/A   Clear
7:30 PM 86.0 °F 88.2 °F 66.2 °F 51% 29.85 in 10.0 mi West 8.1 mph - N/A   Scattered Clouds
7:50 PM 82.4 °F 84.6 °F 66.2 °F 58% 29.85 in 10.0 mi WNW 4.6 mph - N/A   Clear
8:10 PM 82.4 °F 84.6 °F 66.2 °F 58% 29.85 in 10.0 mi WNW 4.6 mph - N/A   Clear
8:30 PM 82.4 °F 84.6 °F 66.2 °F 58% 29.88 in 10.0 mi Calm Calm - N/A   Scattered Clouds
8:50 PM 80.6 °F 82.7 °F 66.2 °F 61% 29.89 in 10.0 mi WNW 3.5 mph - N/A   Clear
9:10 PM 80.6 °F 82.3 °F 64.4 °F 58% 29.90 in 10.0 mi NNW 9.2 mph - N/A   Clear
9:30 PM 80.6 °F 81.8 °F 62.6 °F 54% 29.92 in 10.0 mi Calm Calm - N/A   Clear
9:50 PM 78.8 °F - 62.6 °F 57% 29.92 in 10.0 mi Calm Calm - N/A   Clear
10:10 PM 77.0 °F - 64.4 °F 65% 29.94 in 10.0 mi Calm Calm - N/A   Clear
10:30 PM 77.0 °F - 62.6 °F 61% 29.94 in 10.0 mi West 5.8 mph - N/A   Clear
11:10 PM 71.6 °F - 64.4 °F 78% 29.95 in 10.0 mi Calm Calm - N/A   Clear
11:30 PM 73.4 °F - 64.4 °F 73% 29.95 in 10.0 mi WNW 3.5 mph - N/A   Clear
11:50 PM 73.4 °F - 64.4 °F 73% 29.95 in 10.0 mi Calm Calm - N/A   Clear